Location: Prague
(50.0830°N, 14.4670°E)
Time: 11:28:31
(UTC+01:00)

AO-7 - Pass Details

Date: 14 December 2021
Orbit: 1440 x 1459 km, 101.9° (Epoch: 29 January)

Event Time Altitude Azimuth Distance (km) Brightness Sun altitude
Rises 02:14:54 0° 30° (NNE) 4,554 ? -52.0°
Reaches altitude 10° 02:20:01 10° 57° (ENE) 3,574 ? -51.3°
Maximum altitude 02:23:27 13° 82° (E) 3,346 ? -50.8°
Drops below altitude 10° 02:26:53 10° 107° (ESE) 3,571 ? -50.3°
Sets 02:31:57 0° 134° (SE) 4,547 ? -49.6°
